DAL1889 KATL-TIST

Flight info

Callsign DAL1889
Flight time 3h 18m
Altitude 33000
Route VRSTY3 NOKIE DCT YANTI Q89 MANLE Y185 RENAH/N0458F350 Y355 KOLAO DCT JETSS
Aircraft A321/M-SDE3FGHIRWY/LB1

Departure

Time 2026-05-08 23:34
Airport Hartsfield Jackson Atlanta International Airport (KATL)

Arrival

Time 2026-05-09 02:52
Airport Cyril E. King Airport (TIST)
Time Latitude Longitude Altitude Speed Heading
2026-05-08 22:49 33.63916 -84.43645 1006 ft 0 kts 90°
2026-05-08 23:20 33.63916 -84.43647 1015 ft 2 kts 90°
2026-05-08 23:20 33.63917 -84.43678 1006 ft 4 kts 99°
2026-05-08 23:20 33.63925 -84.43707 1006 ft 4 kts 132°
2026-05-08 23:21 33.63945 -84.43721 1006 ft 2 kts 179°
2026-05-08 23:21 33.63951 -84.43721 1006 ft 0 kts 180°
2026-05-08 23:24 33.63948 -84.43721 1006 ft 3 kts 180°
2026-05-08 23:24 33.63886 -84.43721 1006 ft 10 kts 180°
2026-05-08 23:25 33.63819 -84.43722 1006 ft 9 kts 180°
2026-05-08 23:25 33.63761 -84.43721 1006 ft 8 kts 179°
2026-05-08 23:25 33.63712 -84.43720 1006 ft 6 kts 177°
2026-05-08 23:25 33.63672 -84.43681 1006 ft 10 kts 116°
2026-05-08 23:26 33.63664 -84.43601 1006 ft 9 kts 90°
2026-05-08 23:26 33.63665 -84.43499 1006 ft 17 kts 89°
2026-05-08 23:26 33.63664 -84.43364 1006 ft 15 kts 90°
2026-05-08 23:26 33.63664 -84.43242 1006 ft 14 kts 90°
2026-05-08 23:27 33.63664 -84.43135 1006 ft 12 kts 90°
2026-05-08 23:27 33.63664 -84.43003 1006 ft 18 kts 90°
2026-05-08 23:27 33.63664 -84.42862 1006 ft 16 kts 90°
2026-05-08 23:27 33.63660 -84.42737 1006 ft 14 kts 97°
2026-05-08 23:28 33.63655 -84.42624 1007 ft 12 kts 89°
2026-05-08 23:28 33.63655 -84.42529 1007 ft 11 kts 90°
2026-05-08 23:28 33.63655 -84.42435 1006 ft 14 kts 90°
2026-05-08 23:28 33.63655 -84.42308 1007 ft 15 kts 90°
2026-05-08 23:29 33.63653 -84.42200 1007 ft 10 kts 100°
2026-05-08 23:29 33.63617 -84.42121 1007 ft 13 kts 121°
2026-05-08 23:29 33.63582 -84.42024 1007 ft 12 kts 97°
2026-05-08 23:29 33.63582 -84.41926 1006 ft 13 kts 90°
2026-05-08 23:30 33.63582 -84.41798 1006 ft 15 kts 90°
2026-05-08 23:30 33.63581 -84.41675 1006 ft 14 kts 90°
2026-05-08 23:30 33.63581 -84.41566 1006 ft 12 kts 90°
2026-05-08 23:30 33.63581 -84.41457 1005 ft 16 kts 90°
2026-05-08 23:31 33.63581 -84.41328 1005 ft 15 kts 89°
2026-05-08 23:31 33.63582 -84.41214 1006 ft 13 kts 90°
2026-05-08 23:31 33.63582 -84.41116 1006 ft 11 kts 90°
2026-05-08 23:31 33.63581 -84.41034 1006 ft 9 kts 90°
2026-05-08 23:32 33.63581 -84.40987 1006 ft 8 kts 90°
2026-05-08 23:32 33.63576 -84.40930 1006 ft 6 kts 114°
2026-05-08 23:32 33.63534 -84.40909 1007 ft 10 kts 178°
2026-05-08 23:32 33.63481 -84.40919 1007 ft 5 kts 216°
2026-05-08 23:33 33.63473 -84.40955 1007 ft 4 kts 267°
2026-05-08 23:33 33.63472 -84.41061 1006 ft 37 kts 269°
2026-05-08 23:33 33.63470 -84.41656 1005 ft 102 kts 270°
2026-05-08 23:33 33.63470 -84.42723 1006 ft 152 kts 270°
2026-05-08 23:34 33.63466 -84.44138 1117 ft 181 kts 268°
2026-05-08 23:34 33.63451 -84.45626 1787 ft 178 kts 268°
2026-05-08 23:34 33.63443 -84.47121 2443 ft 179 kts 266°
2026-05-08 23:34 33.63436 -84.48621 2923 ft 183 kts 266°
2026-05-08 23:35 33.63433 -84.50223 3031 ft 203 kts 267°
2026-05-08 23:35 33.63434 -84.51986 3186 ft 218 kts 267°
2026-05-08 23:35 33.63435 -84.53877 3304 ft 238 kts 267°
2026-05-08 23:35 33.63437 -84.55963 3563 ft 258 kts 268°
2026-05-08 23:36 33.63442 -84.58142 4185 ft 263 kts 268°
2026-05-08 23:36 33.63447 -84.60336 4924 ft 263 kts 269°
2026-05-08 23:36 33.63441 -84.62532 5670 ft 262 kts 266°
2026-05-08 23:36 33.63046 -84.64642 6442 ft 261 kts 247°
2026-05-08 23:37 33.62050 -84.66459 7159 ft 263 kts 228°
2026-05-08 23:37 33.60564 -84.67773 7850 ft 268 kts 213°
2026-05-08 23:37 33.58913 -84.68828 8530 ft 272 kts 206°
2026-05-08 23:37 33.57056 -84.69396 9167 ft 281 kts 190°
2026-05-08 23:38 33.55069 -84.69282 9785 ft 291 kts 176°
2026-05-08 23:38 33.53060 -84.68889 10368 ft 294 kts 176°
2026-05-08 23:38 33.51030 -84.68498 10953 ft 297 kts 177°
2026-05-08 23:38 33.48986 -84.68109 11502 ft 300 kts 177°
2026-05-08 23:39 33.46912 -84.67717 12056 ft 303 kts 177°
2026-05-08 23:39 33.44846 -84.67268 12592 ft 310 kts 170°
2026-05-08 23:39 33.42826 -84.66231 13134 ft 323 kts 153°
2026-05-08 23:39 33.41026 -84.64454 13456 ft 345 kts 135°
2026-05-08 23:40 33.39651 -84.61993 13597 ft 367 kts 122°
2026-05-08 23:40 33.38384 -84.59315 13730 ft 383 kts 122°
2026-05-08 23:40 33.37020 -84.56448 13886 ft 398 kts 123°
2026-05-08 23:40 33.35632 -84.53541 14257 ft 405 kts 123°
2026-05-08 23:41 33.34225 -84.50607 14704 ft 409 kts 123°
2026-05-08 23:41 33.32820 -84.47690 15151 ft 412 kts 123°
2026-05-08 23:41 33.31377 -84.44703 15603 ft 416 kts 123°
2026-05-08 23:41 33.29923 -84.41698 16046 ft 420 kts 123°
2026-05-08 23:42 33.28452 -84.38662 16487 ft 424 kts 123°
2026-05-08 23:42 33.26973 -84.35606 16968 ft 427 kts 123°
2026-05-08 23:42 33.25476 -84.32515 17403 ft 431 kts 123°
2026-05-08 23:42 33.23965 -84.29401 17835 ft 435 kts 123°
2026-05-08 23:43 33.22443 -84.26268 18276 ft 438 kts 123°
2026-05-08 23:43 33.20911 -84.23109 18641 ft 441 kts 123°
2026-05-08 23:43 33.19371 -84.19939 19004 ft 443 kts 123°
2026-05-08 23:43 33.17818 -84.16744 19373 ft 446 kts 123°
2026-05-08 23:44 33.16256 -84.13540 19736 ft 448 kts 124°
2026-05-08 23:44 33.14682 -84.10319 20097 ft 450 kts 124°
2026-05-08 23:44 33.13097 -84.07078 20455 ft 453 kts 124°
2026-05-08 23:44 33.11507 -84.03825 20810 ft 455 kts 124°
2026-05-08 23:45 33.09870 -84.00592 21166 ft 455 kts 129°
2026-05-08 23:45 33.07907 -83.97662 21514 ft 450 kts 140°
2026-05-08 23:45 33.05611 -83.95156 21876 ft 445 kts 149°
2026-05-08 23:45 33.03101 -83.93021 22260 ft 443 kts 152°
2026-05-08 23:46 33.00570 -83.90914 22600 ft 445 kts 152°
2026-05-08 23:46 32.98035 -83.88798 23029 ft 445 kts 152°
2026-05-08 23:46 32.95504 -83.86680 23454 ft 445 kts 152°
2026-05-08 23:46 32.92965 -83.84554 23818 ft 446 kts 152°
2026-05-08 23:47 32.90420 -83.82427 24130 ft 447 kts 152°
2026-05-08 23:47 32.87870 -83.80300 24417 ft 449 kts 152°
2026-05-08 23:47 32.85306 -83.78164 24694 ft 451 kts 152°
2026-05-08 23:47 32.82728 -83.76023 24965 ft 453 kts 152°
2026-05-08 23:48 32.80138 -83.73875 25235 ft 455 kts 152°
2026-05-08 23:48 32.77540 -83.71717 25509 ft 457 kts 153°
2026-05-08 23:48 32.74933 -83.69547 25775 ft 459 kts 153°
2026-05-08 23:48 32.72313 -83.67368 25999 ft 461 kts 153°
2026-05-08 23:49 32.69682 -83.65181 26244 ft 463 kts 153°
2026-05-08 23:49 32.67076 -83.62991 26476 ft 466 kts 152°
2026-05-08 23:49 32.64454 -83.60714 26707 ft 469 kts 151°
2026-05-08 23:49 32.61835 -83.58387 26956 ft 471 kts 150°
2026-05-08 23:50 32.59217 -83.56036 27195 ft 473 kts 150°
2026-05-08 23:50 32.56590 -83.53673 27428 ft 475 kts 150°
2026-05-08 23:50 32.53945 -83.51309 27642 ft 477 kts 151°
2026-05-08 23:50 32.51282 -83.48945 27852 ft 480 kts 151°
2026-05-08 23:51 32.48599 -83.46577 28072 ft 481 kts 151°
2026-05-08 23:51 32.45902 -83.44211 28282 ft 483 kts 152°
2026-05-08 23:51 32.43200 -83.41844 28441 ft 485 kts 151°
2026-05-08 23:51 32.40477 -83.39459 28630 ft 488 kts 151°
2026-05-08 23:52 32.37748 -83.37067 28838 ft 490 kts 151°
2026-05-08 23:52 32.35003 -83.34661 29049 ft 492 kts 151°
2026-05-08 23:52 32.32248 -83.32249 29282 ft 494 kts 151°
2026-05-08 23:52 32.29485 -83.29833 29490 ft 495 kts 151°
2026-05-08 23:53 32.26708 -83.27406 29688 ft 497 kts 151°
2026-05-08 23:53 32.23932 -83.24977 29973 ft 497 kts 151°
2026-05-08 23:53 32.21150 -83.22544 30250 ft 497 kts 151°
2026-05-08 23:53 32.18373 -83.20116 30528 ft 496 kts 151°
2026-05-08 23:54 32.15602 -83.17695 30763 ft 496 kts 151°
2026-05-08 23:54 32.12827 -83.15273 31020 ft 496 kts 151°
2026-05-08 23:54 32.10055 -83.12859 31264 ft 495 kts 151°
2026-05-08 23:55 32.04523 -83.08048 31764 ft 494 kts 152°
2026-05-08 23:55 32.01750 -83.05640 31996 ft 494 kts 152°
2026-05-08 23:55 31.98990 -83.03244 32238 ft 493 kts 152°
2026-05-08 23:55 31.96231 -83.00848 32486 ft 493 kts 152°
2026-05-08 23:56 31.93469 -82.98452 32735 ft 492 kts 152°
2026-05-08 23:56 31.90713 -82.96064 32954 ft 492 kts 152°
2026-05-08 23:56 31.87960 -82.93681 33025 ft 489 kts 152°
2026-05-08 23:57 31.82527 -82.88976 32996 ft 482 kts 152°
2026-05-08 23:57 31.77140 -82.84295 33009 ft 483 kts 150°
2026-05-08 23:58 31.71880 -82.79357 33009 ft 485 kts 148°
2026-05-08 23:58 31.66688 -82.74287 33008 ft 485 kts 148°
2026-05-08 23:59 31.61516 -82.69303 33016 ft 484 kts 149°
2026-05-08 23:59 31.56276 -82.64347 32985 ft 483 kts 150°
2026-05-09 00:00 31.51031 -82.59422 32998 ft 483 kts 150°
2026-05-09 00:00 31.45800 -82.54496 32991 ft 483 kts 149°
2026-05-09 00:01 31.40568 -82.49561 33029 ft 482 kts 149°
2026-05-09 00:01 31.35342 -82.44640 33019 ft 482 kts 149°
2026-05-09 00:02 31.30111 -82.39724 33018 ft 482 kts 149°
2026-05-09 00:02 31.24854 -82.34789 33012 ft 488 kts 150°
2026-05-09 00:03 31.19546 -82.29817 33015 ft 490 kts 150°
2026-05-09 00:03 31.14217 -82.24827 33023 ft 491 kts 150°
2026-05-09 00:04 31.08880 -82.19849 33028 ft 491 kts 150°
2026-05-09 00:04 31.03539 -82.14868 33059 ft 491 kts 150°
2026-05-09 00:05 30.98200 -82.09895 33007 ft 492 kts 150°
2026-05-09 00:05 30.92850 -82.04917 33058 ft 492 kts 150°
2026-05-09 00:06 30.87501 -81.99947 33088 ft 493 kts 150°
2026-05-09 00:06 30.82134 -81.94967 33059 ft 494 kts 150°
2026-05-09 00:07 30.76793 -81.90023 33054 ft 494 kts 150°
2026-05-09 00:07 30.71422 -81.85054 33044 ft 494 kts 150°
2026-05-09 00:08 30.66046 -81.80096 33012 ft 493 kts 150°
2026-05-09 00:08 30.60658 -81.75181 33014 ft 491 kts 152°
2026-05-09 00:09 30.55119 -81.70611 33013 ft 487 kts 155°
2026-05-09 00:09 30.49500 -81.66241 33014 ft 486 kts 155°
2026-05-09 00:10 30.43899 -81.61837 33007 ft 487 kts 154°
2026-05-09 00:10 30.38322 -81.57354 33008 ft 488 kts 154°
2026-05-09 00:11 30.32751 -81.52841 32892 ft 489 kts 154°
2026-05-09 00:11 30.29961 -81.50591 32772 ft 489 kts 154°
2026-05-09 00:11 30.27166 -81.48349 32644 ft 489 kts 154°
2026-05-09 00:11 30.24366 -81.46108 32517 ft 489 kts 154°
2026-05-09 00:12 30.21567 -81.43874 32401 ft 489 kts 154°
2026-05-09 00:12 30.18764 -81.41639 32280 ft 489 kts 154°
2026-05-09 00:12 30.15997 -81.39431 32124 ft 490 kts 154°
2026-05-09 00:12 30.13194 -81.37194 31991 ft 489 kts 154°
2026-05-09 00:13 30.10395 -81.34959 32015 ft 490 kts 154°
2026-05-09 00:13 30.04777 -81.30476 32044 ft 491 kts 154°
2026-05-09 00:14 29.99154 -81.25998 32047 ft 492 kts 154°
2026-05-09 00:14 29.93515 -81.21514 32045 ft 492 kts 154°
2026-05-09 00:15 29.87879 -81.17037 32040 ft 492 kts 154°
2026-05-09 00:15 29.82208 -81.12646 32031 ft 486 kts 160°
2026-05-09 00:15 29.79201 -81.10980 32027 ft 475 kts 167°
2026-05-09 00:16 29.76141 -81.09549 32025 ft 476 kts 167°
2026-05-09 00:16 29.70010 -81.06665 32012 ft 476 kts 167°
2026-05-09 00:17 29.63881 -81.03762 32014 ft 476 kts 167°
2026-05-09 00:17 29.57755 -81.00859 32007 ft 476 kts 167°
2026-05-09 00:18 29.51631 -80.97973 31954 ft 476 kts 167°
2026-05-09 00:18 29.45495 -80.95090 31998 ft 477 kts 167°
2026-05-09 00:19 29.39350 -80.92201 31995 ft 477 kts 167°
2026-05-09 00:19 29.33207 -80.89312 31997 ft 477 kts 167°
2026-05-09 00:20 29.27075 -80.86429 32007 ft 477 kts 167°
2026-05-09 00:20 29.20972 -80.83566 31987 ft 477 kts 166°
2026-05-09 00:21 29.14820 -80.80697 32006 ft 477 kts 166°
2026-05-09 00:21 29.08696 -80.77838 32012 ft 475 kts 166°
2026-05-09 00:22 29.02594 -80.74985 32004 ft 474 kts 166°
2026-05-09 00:22 28.97474 -80.72599 31996 ft 474 kts 166°
2026-05-09 00:23 28.91411 -80.69747 31962 ft 477 kts 162°
2026-05-09 00:23 28.88485 -80.67866 31985 ft 488 kts 153°
2026-05-09 00:23 28.85817 -80.65436 31979 ft 497 kts 142°
2026-05-09 00:23 28.83482 -80.62477 31970 ft 505 kts 131°
2026-05-09 00:24 28.81504 -80.59152 31976 ft 508 kts 128°
2026-05-09 00:24 28.77609 -80.52418 32177 ft 509 kts 128°
2026-05-09 00:24 28.75643 -80.49053 32286 ft 509 kts 128°
2026-05-09 00:25 28.73680 -80.45707 32435 ft 509 kts 128°
2026-05-09 00:25 28.71710 -80.42346 32544 ft 509 kts 128°
2026-05-09 00:25 28.69745 -80.38991 32660 ft 509 kts 129°
2026-05-09 00:25 28.67780 -80.35653 32796 ft 509 kts 129°
2026-05-09 00:26 28.65795 -80.32303 32931 ft 509 kts 129°
2026-05-09 00:26 28.61807 -80.25608 32981 ft 512 kts 129°
2026-05-09 00:27 28.57815 -80.18911 32993 ft 511 kts 129°
2026-05-09 00:27 28.53835 -80.12216 33008 ft 510 kts 128°
2026-05-09 00:28 28.49861 -80.05540 33007 ft 510 kts 128°
2026-05-09 00:28 28.45881 -79.98877 33018 ft 509 kts 129°
2026-05-09 00:29 28.41894 -79.92221 33019 ft 509 kts 129°
2026-05-09 00:29 28.37906 -79.85568 33018 ft 509 kts 128°
2026-05-09 00:30 28.33923 -79.78919 33012 ft 509 kts 128°
2026-05-09 00:30 28.29928 -79.72272 33023 ft 509 kts 128°
2026-05-09 00:31 28.25943 -79.65643 33003 ft 509 kts 128°
2026-05-09 00:31 28.21952 -79.59021 33025 ft 508 kts 128°
2026-05-09 00:32 28.17984 -79.52465 33029 ft 507 kts 129°
2026-05-09 00:32 28.13994 -79.45875 33031 ft 507 kts 129°
2026-05-09 00:33 28.10005 -79.39298 33032 ft 506 kts 128°
2026-05-09 00:33 28.06022 -79.32712 33030 ft 506 kts 129°
2026-05-09 00:34 28.02033 -79.26148 33032 ft 506 kts 129°
2026-05-09 00:34 27.98041 -79.19590 33030 ft 506 kts 129°
2026-05-09 00:35 27.94042 -79.13044 33032 ft 506 kts 129°
2026-05-09 00:35 27.90049 -79.06496 33023 ft 505 kts 128°
2026-05-09 00:36 27.86061 -78.99960 33029 ft 505 kts 128°
2026-05-09 00:36 27.82075 -78.93433 33038 ft 504 kts 128°
2026-05-09 00:37 27.78089 -78.86921 33040 ft 504 kts 129°
2026-05-09 00:37 27.74096 -78.80422 33038 ft 504 kts 129°
2026-05-09 00:38 27.70103 -78.73928 33033 ft 503 kts 129°
2026-05-09 00:38 27.66105 -78.67443 33028 ft 503 kts 129°
2026-05-09 00:39 27.62127 -78.60944 33027 ft 504 kts 128°
2026-05-09 00:39 27.58287 -78.54331 33002 ft 504 kts 126°
2026-05-09 00:40 27.54489 -78.47700 33025 ft 503 kts 126°
2026-05-09 00:40 27.50654 -78.41109 33043 ft 503 kts 127°
2026-05-09 00:41 27.44897 -78.31308 33033 ft 502 kts 127°
2026-05-09 00:41 27.41040 -78.24763 33035 ft 502 kts 127°
2026-05-09 00:42 27.37185 -78.18225 33033 ft 501 kts 127°
2026-05-09 00:42 27.33335 -78.11682 33033 ft 501 kts 127°
2026-05-09 00:43 27.29484 -78.05144 33031 ft 501 kts 127°
2026-05-09 00:43 27.25626 -77.98612 33029 ft 501 kts 127°
2026-05-09 00:44 27.21769 -77.92088 33029 ft 501 kts 127°
2026-05-09 00:44 27.17908 -77.85567 33026 ft 501 kts 127°
2026-05-09 00:45 27.14044 -77.79050 33026 ft 502 kts 127°
2026-05-09 00:45 27.10168 -77.72529 33029 ft 502 kts 127°
2026-05-09 00:46 27.06291 -77.66012 33041 ft 502 kts 127°
2026-05-09 00:46 27.02411 -77.59502 33030 ft 502 kts 127°
2026-05-09 00:47 26.98538 -77.52989 33025 ft 503 kts 126°
2026-05-09 00:47 26.94722 -77.46417 33028 ft 503 kts 126°
2026-05-09 00:48 26.90939 -77.39878 33028 ft 504 kts 126°
2026-05-09 00:48 26.87104 -77.33309 33037 ft 503 kts 126°
2026-05-09 00:49 26.83268 -77.26763 33046 ft 503 kts 126°
2026-05-09 00:49 26.79430 -77.20220 33036 ft 502 kts 126°
2026-05-09 00:50 26.75588 -77.13690 33046 ft 502 kts 126°
2026-05-09 00:50 26.71751 -77.07156 33049 ft 502 kts 126°
2026-05-09 00:51 26.67911 -77.00633 33045 ft 502 kts 126°
2026-05-09 00:51 26.64066 -76.94113 33048 ft 502 kts 126°
2026-05-09 00:52 26.60220 -76.87593 33049 ft 502 kts 126°
2026-05-09 00:52 26.56370 -76.81082 33048 ft 502 kts 126°
2026-05-09 00:53 26.52521 -76.74574 33048 ft 502 kts 126°
2026-05-09 00:53 26.48671 -76.68075 33052 ft 501 kts 126°
2026-05-09 00:54 26.44814 -76.61591 33059 ft 501 kts 126°
2026-05-09 00:54 26.40961 -76.55118 33057 ft 501 kts 126°
2026-05-09 00:55 26.37113 -76.48642 33054 ft 501 kts 126°
2026-05-09 00:55 26.33286 -76.42218 33057 ft 500 kts 126°
2026-05-09 00:56 26.29431 -76.35772 33056 ft 500 kts 126°
2026-05-09 00:56 26.25574 -76.29329 33055 ft 500 kts 126°
2026-05-09 00:57 26.21720 -76.22888 33053 ft 499 kts 126°
2026-05-09 00:57 26.17869 -76.16462 33044 ft 499 kts 126°
2026-05-09 00:58 26.14017 -76.10049 33056 ft 498 kts 126°
2026-05-09 00:58 26.10186 -76.03669 33245 ft 495 kts 126°
2026-05-09 00:59 26.08267 -76.00486 33372 ft 495 kts 126°
2026-05-09 00:59 26.06352 -75.97313 33495 ft 494 kts 126°
2026-05-09 00:59 26.04436 -75.94137 33626 ft 494 kts 126°
2026-05-09 00:59 26.02521 -75.90965 33754 ft 494 kts 126°
2026-05-09 01:00 26.00610 -75.87795 33873 ft 494 kts 126°
2026-05-09 01:00 25.98695 -75.84626 34008 ft 494 kts 126°
2026-05-09 01:00 25.96787 -75.81464 34123 ft 493 kts 126°
2026-05-09 01:00 25.94901 -75.78341 34235 ft 493 kts 126°
2026-05-09 01:01 25.92992 -75.75188 34348 ft 492 kts 126°
2026-05-09 01:01 25.91081 -75.72039 34459 ft 491 kts 126°
2026-05-09 01:01 25.89174 -75.68895 34572 ft 490 kts 126°
2026-05-09 01:01 25.87271 -75.65756 34686 ft 490 kts 126°
2026-05-09 01:02 25.85371 -75.62620 34805 ft 490 kts 126°
2026-05-09 01:02 25.83471 -75.59484 34931 ft 489 kts 126°
2026-05-09 01:02 25.79668 -75.53236 35047 ft 487 kts 126°
2026-05-09 01:03 25.75875 -75.47013 35048 ft 487 kts 126°
2026-05-09 01:03 25.72084 -75.40794 35048 ft 486 kts 126°
2026-05-09 01:04 25.68301 -75.34588 35052 ft 485 kts 126°
2026-05-09 01:04 25.64515 -75.28393 35051 ft 485 kts 126°
2026-05-09 01:05 25.60731 -75.22207 35051 ft 485 kts 126°
2026-05-09 01:06 25.55071 -75.12981 35053 ft 485 kts 126°
2026-05-09 01:06 25.51271 -75.06805 35055 ft 485 kts 126°
2026-05-09 01:07 25.47486 -75.00643 35042 ft 483 kts 126°
2026-05-09 01:07 25.43709 -74.94508 35051 ft 482 kts 126°
2026-05-09 01:08 25.39937 -74.88387 35053 ft 481 kts 126°
2026-05-09 01:08 25.36169 -74.82267 35054 ft 481 kts 126°
2026-05-09 01:09 25.32393 -74.76160 35054 ft 481 kts 126°
2026-05-09 01:09 25.28610 -74.70056 35054 ft 481 kts 126°
2026-05-09 01:10 25.24830 -74.63958 35057 ft 481 kts 126°
2026-05-09 01:10 25.21075 -74.57890 35057 ft 481 kts 126°
2026-05-09 01:11 25.17290 -74.51793 35054 ft 481 kts 126°
2026-05-09 01:11 25.13493 -74.45702 35057 ft 481 kts 126°
2026-05-09 01:12 25.09699 -74.39618 35058 ft 481 kts 126°
2026-05-09 01:12 25.05918 -74.33553 35062 ft 479 kts 125°
2026-05-09 01:13 25.02143 -74.27500 35058 ft 479 kts 125°
2026-05-09 01:13 24.99007 -74.22470 35061 ft 479 kts 126°
2026-05-09 01:14 24.95225 -74.16427 35059 ft 479 kts 126°
2026-05-09 01:14 24.91439 -74.10389 35059 ft 479 kts 126°
2026-05-09 01:15 24.87651 -74.04363 35062 ft 479 kts 126°
2026-05-09 01:15 24.83859 -73.98327 35064 ft 479 kts 126°
2026-05-09 01:16 24.80079 -73.92308 35061 ft 478 kts 126°
2026-05-09 01:16 24.76298 -73.86292 35064 ft 478 kts 126°
2026-05-09 01:17 24.70615 -73.77286 35072 ft 477 kts 125°
2026-05-09 01:17 24.66821 -73.71301 35056 ft 477 kts 125°
2026-05-09 01:18 24.63033 -73.65310 35068 ft 477 kts 125°
2026-05-09 01:18 24.59278 -73.59369 35062 ft 476 kts 125°
2026-05-09 01:19 24.55524 -73.53373 35059 ft 476 kts 123°
2026-05-09 01:19 24.52085 -73.47155 35063 ft 476 kts 120°
2026-05-09 01:20 24.48818 -73.40830 35068 ft 476 kts 120°
2026-05-09 01:20 24.45503 -73.34525 35066 ft 476 kts 121°
2026-05-09 01:21 24.42116 -73.28279 35068 ft 476 kts 121°
2026-05-09 01:21 24.38712 -73.22061 35065 ft 475 kts 121°
2026-05-09 01:22 24.35326 -73.15838 35062 ft 474 kts 121°
2026-05-09 01:22 24.31951 -73.09625 35068 ft 474 kts 121°
2026-05-09 01:23 24.28579 -73.03418 35070 ft 474 kts 121°
2026-05-09 01:23 24.25201 -72.97217 35070 ft 474 kts 121°
2026-05-09 01:24 24.21821 -72.91025 35079 ft 473 kts 121°
2026-05-09 01:24 24.18435 -72.84846 35066 ft 473 kts 121°
2026-05-09 01:25 24.15047 -72.78666 35071 ft 473 kts 121°
2026-05-09 01:25 24.11664 -72.72486 35065 ft 473 kts 121°
2026-05-09 01:26 24.08299 -72.66343 35066 ft 473 kts 121°
2026-05-09 01:26 24.04911 -72.60175 35071 ft 473 kts 121°
2026-05-09 01:27 24.01518 -72.54005 35068 ft 473 kts 121°
2026-05-09 01:27 23.98123 -72.47845 35062 ft 473 kts 121°
2026-05-09 01:28 23.94735 -72.41692 35071 ft 472 kts 121°
2026-05-09 01:28 23.91344 -72.35552 35071 ft 471 kts 121°
2026-05-09 01:29 23.87959 -72.29423 35069 ft 471 kts 121°
2026-05-09 01:29 23.84569 -72.23292 35072 ft 471 kts 121°
2026-05-09 01:30 23.81174 -72.17170 35076 ft 471 kts 121°
2026-05-09 01:30 23.77777 -72.11049 35080 ft 471 kts 121°
2026-05-09 01:31 23.74375 -72.04940 35080 ft 471 kts 121°
2026-05-09 01:31 23.71004 -71.98866 35065 ft 471 kts 121°
2026-05-09 01:32 23.67584 -71.92719 35083 ft 471 kts 121°
2026-05-09 01:32 23.64198 -71.86654 35082 ft 471 kts 121°
2026-05-09 01:33 23.60763 -71.80577 35070 ft 471 kts 124°
2026-05-09 01:33 23.56835 -71.74858 35082 ft 471 kts 127°
2026-05-09 01:34 23.52887 -71.69158 35069 ft 471 kts 127°
2026-05-09 01:34 23.48938 -71.63458 35079 ft 471 kts 127°
2026-05-09 01:35 23.44986 -71.57756 35072 ft 471 kts 127°
2026-05-09 01:35 23.41033 -71.52067 35084 ft 471 kts 127°
2026-05-09 01:36 23.37067 -71.46385 35072 ft 471 kts 127°
2026-05-09 01:36 23.33110 -71.40694 35082 ft 471 kts 127°
2026-05-09 01:37 23.29151 -71.35002 35073 ft 471 kts 127°
2026-05-09 01:37 23.25190 -71.29321 35085 ft 471 kts 127°
2026-05-09 01:38 23.21218 -71.23653 35082 ft 471 kts 127°
2026-05-09 01:38 23.17256 -71.17994 35082 ft 470 kts 127°
2026-05-09 01:39 23.13297 -71.12335 35078 ft 470 kts 127°
2026-05-09 01:39 23.09363 -71.06723 35080 ft 470 kts 127°
2026-05-09 01:40 23.05398 -71.01069 35085 ft 470 kts 127°
2026-05-09 01:40 23.01441 -70.95419 35082 ft 470 kts 127°
2026-05-09 01:41 22.97472 -70.89776 35082 ft 470 kts 127°
2026-05-09 01:41 22.93491 -70.84140 35079 ft 471 kts 127°
2026-05-09 01:42 22.89512 -70.78501 35085 ft 471 kts 127°
2026-05-09 01:42 22.85532 -70.72866 35076 ft 471 kts 127°
2026-05-09 01:43 22.81548 -70.67242 35087 ft 470 kts 127°
2026-05-09 01:43 22.77566 -70.61627 35083 ft 470 kts 127°
2026-05-09 01:44 22.73583 -70.56015 35084 ft 470 kts 127°
2026-05-09 01:44 22.69592 -70.50403 35083 ft 470 kts 127°
2026-05-09 01:45 22.65609 -70.44786 35079 ft 471 kts 127°
2026-05-09 01:45 22.61620 -70.39163 35083 ft 471 kts 127°
2026-05-09 01:46 22.57619 -70.33559 35087 ft 471 kts 127°
2026-05-09 01:46 22.53616 -70.27955 35087 ft 471 kts 127°
2026-05-09 01:47 22.49612 -70.22357 35086 ft 471 kts 127°
2026-05-09 01:47 22.45610 -70.16765 35082 ft 470 kts 127°
2026-05-09 01:48 22.41616 -70.11175 35079 ft 470 kts 127°
2026-05-09 01:48 22.37622 -70.05593 35083 ft 470 kts 127°
2026-05-09 01:49 22.33619 -70.00016 35088 ft 470 kts 127°
2026-05-09 01:49 22.29642 -69.94480 35082 ft 470 kts 127°
2026-05-09 01:50 22.25644 -69.88911 35091 ft 470 kts 127°
2026-05-09 01:50 22.21632 -69.83338 35091 ft 470 kts 127°
2026-05-09 01:51 22.17622 -69.77772 35086 ft 470 kts 127°
2026-05-09 01:51 22.13608 -69.72203 35082 ft 470 kts 127°
2026-05-09 01:52 22.09595 -69.66638 35087 ft 469 kts 127°
2026-05-09 01:52 22.05585 -69.61090 35091 ft 469 kts 127°
2026-05-09 01:53 22.01577 -69.55549 35091 ft 469 kts 127°
2026-05-09 01:53 21.97561 -69.50010 35081 ft 469 kts 127°
2026-05-09 01:54 21.93540 -69.44471 35089 ft 469 kts 127°
2026-05-09 01:54 21.89524 -69.38925 35080 ft 469 kts 127°
2026-05-09 01:55 21.85535 -69.33425 35087 ft 469 kts 127°
2026-05-09 01:55 21.81510 -69.27889 35089 ft 469 kts 127°
2026-05-09 01:56 21.77482 -69.22359 35094 ft 469 kts 127°
2026-05-09 01:56 21.73456 -69.16829 35090 ft 469 kts 127°
2026-05-09 01:57 21.69437 -69.11302 35095 ft 469 kts 127°
2026-05-09 01:57 21.65418 -69.05787 35082 ft 469 kts 127°
2026-05-09 01:58 21.61390 -69.00279 35091 ft 469 kts 127°
2026-05-09 01:58 21.57358 -68.94777 35089 ft 469 kts 127°
2026-05-09 01:59 21.53332 -68.89271 35089 ft 468 kts 127°
2026-05-09 01:59 21.49306 -68.83768 35092 ft 469 kts 127°
2026-05-09 02:00 21.45271 -68.78274 35095 ft 469 kts 127°
2026-05-09 02:00 21.41220 -68.72779 35095 ft 469 kts 127°
2026-05-09 02:01 21.37211 -68.67321 35089 ft 469 kts 127°
2026-05-09 02:01 21.33154 -68.61794 35094 ft 467 kts 127°
2026-05-09 02:02 21.29127 -68.56331 35092 ft 467 kts 127°
2026-05-09 02:02 21.25126 -68.50909 35090 ft 467 kts 127°
2026-05-09 02:03 21.21096 -68.45448 35093 ft 467 kts 127°
2026-05-09 02:03 21.17071 -68.39985 35092 ft 467 kts 127°
2026-05-09 02:04 21.13041 -68.34526 35090 ft 467 kts 127°
2026-05-09 02:04 21.09009 -68.29074 35094 ft 467 kts 127°
2026-05-09 02:05 21.05647 -68.24550 35097 ft 467 kts 127°
2026-05-09 02:05 21.01603 -68.19109 35102 ft 467 kts 127°
2026-05-09 02:06 20.97569 -68.13655 35082 ft 467 kts 127°
2026-05-09 02:07 20.91522 -68.05514 35098 ft 466 kts 127°
2026-05-09 02:07 20.87488 -68.00090 35081 ft 466 kts 127°
2026-05-09 02:08 20.83466 -67.94657 35096 ft 466 kts 126°
2026-05-09 02:08 20.79502 -67.89188 35082 ft 465 kts 126°
2026-05-09 02:09 20.75543 -67.83711 35090 ft 466 kts 126°
2026-05-09 02:09 20.71569 -67.78257 35085 ft 465 kts 126°
2026-05-09 02:10 20.67588 -67.72805 35091 ft 465 kts 126°
2026-05-09 02:10 20.63640 -67.67383 35084 ft 465 kts 126°
2026-05-09 02:11 20.59655 -67.61932 35087 ft 465 kts 126°
2026-05-09 02:11 20.55689 -67.56503 35085 ft 464 kts 126°
2026-05-09 02:12 20.51719 -67.51075 35093 ft 464 kts 126°
2026-05-09 02:12 20.47743 -67.45656 35083 ft 464 kts 126°
2026-05-09 02:13 20.43761 -67.40239 35090 ft 464 kts 126°
2026-05-09 02:13 20.39788 -67.34820 35082 ft 464 kts 126°
2026-05-09 02:14 20.35812 -67.29404 35091 ft 464 kts 126°
2026-05-09 02:14 20.31833 -67.23994 35078 ft 464 kts 126°
2026-05-09 02:15 20.27850 -67.18584 35090 ft 465 kts 126°
2026-05-09 02:15 20.23855 -67.13169 35090 ft 465 kts 126°
2026-05-09 02:16 20.19894 -67.07792 35087 ft 464 kts 126°
2026-05-09 02:16 20.15921 -67.02392 35086 ft 463 kts 126°
2026-05-09 02:17 20.11948 -66.97005 35086 ft 463 kts 126°
2026-05-09 02:17 20.07964 -66.91628 35085 ft 463 kts 126°
2026-05-09 02:18 20.03983 -66.86254 35087 ft 463 kts 126°
2026-05-09 02:18 20.00009 -66.80865 35083 ft 462 kts 123°
2026-05-09 02:19 19.96820 -66.74981 35082 ft 459 kts 115°
2026-05-09 02:19 19.93829 -66.68977 35085 ft 459 kts 115°
2026-05-09 02:20 19.90826 -66.62986 35085 ft 459 kts 115°
2026-05-09 02:20 19.87826 -66.56994 35093 ft 459 kts 115°
2026-05-09 02:21 19.84838 -66.51037 35087 ft 460 kts 115°
2026-05-09 02:21 19.81828 -66.45036 34788 ft 463 kts 115°
2026-05-09 02:21 19.80290 -66.41965 33490 ft 479 kts 115°
2026-05-09 02:22 19.78708 -66.38805 32382 ft 488 kts 115°
2026-05-09 02:22 19.77116 -66.35632 31754 ft 486 kts 115°
2026-05-09 02:22 19.75530 -66.32475 31223 ft 482 kts 115°
2026-05-09 02:22 19.73963 -66.29356 30621 ft 476 kts 115°
2026-05-09 02:23 19.72417 -66.26271 29891 ft 471 kts 115°
2026-05-09 02:23 19.70891 -66.23224 29097 ft 466 kts 116°
2026-05-09 02:23 19.69376 -66.20202 28321 ft 461 kts 116°
2026-05-09 02:23 19.67875 -66.17225 27564 ft 456 kts 116°
2026-05-09 02:24 19.66384 -66.14271 26810 ft 451 kts 117°
2026-05-09 02:24 19.64913 -66.11357 26236 ft 443 kts 117°
2026-05-09 02:24 19.63477 -66.08510 25749 ft 434 kts 117°
2026-05-09 02:24 19.62068 -66.05719 25261 ft 425 kts 117°
2026-05-09 02:25 19.60691 -66.02986 24797 ft 416 kts 118°
2026-05-09 02:25 19.59341 -66.00306 24332 ft 408 kts 118°
2026-05-09 02:25 19.58013 -65.97671 23882 ft 403 kts 118°
2026-05-09 02:25 19.56707 -65.95089 23374 ft 402 kts 119°
2026-05-09 02:26 19.55375 -65.92459 22902 ft 398 kts 119°
2026-05-09 02:26 19.54088 -65.89916 22448 ft 395 kts 119°
2026-05-09 02:26 19.52795 -65.87361 21985 ft 392 kts 119°
2026-05-09 02:26 19.51509 -65.84828 21530 ft 389 kts 118°
2026-05-09 02:27 19.50229 -65.82305 21068 ft 387 kts 118°
2026-05-09 02:27 19.48957 -65.79802 20598 ft 385 kts 118°
2026-05-09 02:27 19.47693 -65.77307 20134 ft 384 kts 117°
2026-05-09 02:27 19.46432 -65.74820 19672 ft 382 kts 117°
2026-05-09 02:28 19.45174 -65.72342 19220 ft 381 kts 117°
2026-05-09 02:28 19.43918 -65.69876 18750 ft 380 kts 117°
2026-05-09 02:28 19.42667 -65.67418 18265 ft 379 kts 117°
2026-05-09 02:28 19.41413 -65.64951 17695 ft 379 kts 116°
2026-05-09 02:29 19.40173 -65.62505 17255 ft 376 kts 116°
2026-05-09 02:29 19.38939 -65.60072 16810 ft 373 kts 117°
2026-05-09 02:29 19.37715 -65.57660 16366 ft 370 kts 117°
2026-05-09 02:29 19.36500 -65.55273 15929 ft 367 kts 117°
2026-05-09 02:30 19.35290 -65.52898 15497 ft 365 kts 117°
2026-05-09 02:30 19.34090 -65.50543 15054 ft 362 kts 117°
2026-05-09 02:30 19.32897 -65.48206 14636 ft 360 kts 117°
2026-05-09 02:30 19.31460 -65.46040 14204 ft 360 kts 132°
2026-05-09 02:31 19.29530 -65.44373 13756 ft 360 kts 148°
2026-05-09 02:31 19.27235 -65.43339 13296 ft 359 kts 164°
2026-05-09 02:31 19.24770 -65.42942 12852 ft 357 kts 173°
2026-05-09 02:31 19.22303 -65.42674 12410 ft 355 kts 173°
2026-05-09 02:32 19.19855 -65.42406 11962 ft 353 kts 172°
2026-05-09 02:32 19.17417 -65.42135 11514 ft 351 kts 172°
2026-05-09 02:32 19.14988 -65.41868 11068 ft 350 kts 172°
2026-05-09 02:32 19.12567 -65.41601 10610 ft 349 kts 172°
2026-05-09 02:33 19.10157 -65.41333 10225 ft 346 kts 172°
2026-05-09 02:33 19.07808 -65.41074 10109 ft 333 kts 172°
2026-05-09 02:33 19.05543 -65.40830 9992 ft 321 kts 172°
2026-05-09 02:33 19.03355 -65.40592 9850 ft 311 kts 171°
2026-05-09 02:34 19.01219 -65.40358 9470 ft 306 kts 171°
2026-05-09 02:34 18.99115 -65.40126 9070 ft 300 kts 171°
2026-05-09 02:34 18.97048 -65.39897 8979 ft 298 kts 171°
2026-05-09 02:34 18.95008 -65.39669 9004 ft 299 kts 171°
2026-05-09 02:35 18.92935 -65.39439 9001 ft 300 kts 171°
2026-05-09 02:35 18.90868 -65.39207 9001 ft 299 kts 171°
2026-05-09 02:35 18.88796 -65.38971 9001 ft 299 kts 171°
2026-05-09 02:35 18.86725 -65.38738 9001 ft 299 kts 171°
2026-05-09 02:36 18.84655 -65.38506 8994 ft 299 kts 171°
2026-05-09 02:36 18.82583 -65.38273 9003 ft 300 kts 171°
2026-05-09 02:36 18.80512 -65.38044 8994 ft 299 kts 171°
2026-05-09 02:36 18.78440 -65.37816 9004 ft 299 kts 172°
2026-05-09 02:37 18.76367 -65.37588 9002 ft 299 kts 171°
2026-05-09 02:37 18.74302 -65.37360 9008 ft 299 kts 171°
2026-05-09 02:37 18.72229 -65.37130 8995 ft 299 kts 171°
2026-05-09 02:37 18.70158 -65.36899 8994 ft 299 kts 171°
2026-05-09 02:38 18.68151 -65.36397 9007 ft 295 kts 154°
2026-05-09 02:38 18.66396 -65.35333 8987 ft 290 kts 137°
2026-05-09 02:38 18.64986 -65.33837 8990 ft 287 kts 128°
2026-05-09 02:38 18.63655 -65.32262 8998 ft 287 kts 128°
2026-05-09 02:39 18.62324 -65.30698 8997 ft 287 kts 128°
2026-05-09 02:39 18.60984 -65.29131 8987 ft 287 kts 129°
2026-05-09 02:39 18.59646 -65.27572 8989 ft 287 kts 129°
2026-05-09 02:39 18.58325 -65.26029 8996 ft 287 kts 129°
2026-05-09 02:40 18.56987 -65.24465 8995 ft 287 kts 129°
2026-05-09 02:40 18.55651 -65.22903 9002 ft 287 kts 129°
2026-05-09 02:40 18.54317 -65.21350 8733 ft 285 kts 130°
2026-05-09 02:40 18.52730 -65.20116 8356 ft 288 kts 155°
2026-05-09 02:41 18.50769 -65.19722 7878 ft 291 kts 179°
2026-05-09 02:41 18.48755 -65.19934 7344 ft 291 kts 185°
2026-05-09 02:41 18.46759 -65.20241 6845 ft 289 kts 186°
2026-05-09 02:41 18.44789 -65.20552 6373 ft 286 kts 186°
2026-05-09 02:42 18.42829 -65.20867 5855 ft 283 kts 186°
2026-05-09 02:42 18.40886 -65.21188 5362 ft 281 kts 186°
2026-05-09 02:42 18.38964 -65.21508 4876 ft 278 kts 186°
2026-05-09 02:42 18.37101 -65.21826 4681 ft 263 kts 186°
2026-05-09 02:43 18.35355 -65.22136 4384 ft 248 kts 186°
2026-05-09 02:43 18.33700 -65.22431 4075 ft 232 kts 185°
2026-05-09 02:43 18.32139 -65.22730 3800 ft 226 kts 186°
2026-05-09 02:43 18.30608 -65.23024 3530 ft 221 kts 186°
2026-05-09 02:44 18.29102 -65.23314 3191 ft 220 kts 186°
2026-05-09 02:44 18.27599 -65.23609 3000 ft 219 kts 186°
2026-05-09 02:44 18.26122 -65.24029 2982 ft 225 kts 205°
2026-05-09 02:44 18.24995 -65.25178 2997 ft 231 kts 240°
2026-05-09 02:45 18.24629 -65.26814 2988 ft 234 kts 276°
2026-05-09 02:45 18.25151 -65.28398 2992 ft 229 kts 311°
2026-05-09 02:45 18.26344 -65.29383 2999 ft 218 kts 345°
2026-05-09 02:45 18.27820 -65.29715 2985 ft 212 kts
2026-05-09 02:46 18.29148 -65.29240 3007 ft 204 kts 38°
2026-05-09 02:46 18.30244 -65.28290 2998 ft 203 kts 45°
2026-05-09 02:46 18.31284 -65.27299 3001 ft 202 kts 45°
2026-05-09 02:46 18.32149 -65.26156 3005 ft 198 kts 65°
2026-05-09 02:47 18.32535 -65.24779 2991 ft 199 kts 86°
2026-05-09 02:47 18.32601 -65.23320 3008 ft 200 kts 87°
2026-05-09 02:47 18.32665 -65.21870 3006 ft 197 kts 86°
2026-05-09 02:47 18.32728 -65.20429 2999 ft 199 kts 87°
2026-05-09 02:48 18.32792 -65.18969 3010 ft 200 kts 87°
2026-05-09 02:48 18.32856 -65.17511 3006 ft 199 kts 87°
2026-05-09 02:48 18.32920 -65.16061 2998 ft 198 kts 87°
2026-05-09 02:48 18.32983 -65.14610 2912 ft 198 kts 87°
2026-05-09 02:49 18.33046 -65.13160 2702 ft 198 kts 86°
2026-05-09 02:49 18.33109 -65.11714 2451 ft 198 kts 85°
2026-05-09 02:49 18.33172 -65.10269 2205 ft 197 kts 85°
2026-05-09 02:49 18.33233 -65.08851 1967 ft 190 kts 86°
2026-05-09 02:50 18.33292 -65.07503 1713 ft 178 kts 86°
2026-05-09 02:50 18.33344 -65.06271 1510 ft 159 kts 85°
2026-05-09 02:50 18.33392 -65.05177 1302 ft 145 kts 85°
2026-05-09 02:50 18.33439 -65.04135 1086 ft 141 kts 86°
2026-05-09 02:51 18.33491 -65.03093 919 ft 141 kts 86°
2026-05-09 02:51 18.33532 -65.02071 752 ft 140 kts 87°
2026-05-09 02:51 18.33579 -65.01047 556 ft 140 kts 87°
2026-05-09 02:51 18.33617 -65.00016 376 ft 141 kts 88°
2026-05-09 02:52 18.33660 -64.99007 192 ft 139 kts 87°
2026-05-09 02:52 18.33697 -64.97988 28 ft 137 kts 88°
2026-05-09 02:52 18.33737 -64.97193 19 ft 68 kts 87°
2026-05-09 02:52 18.33746 -64.96959 16 ft 17 kts 88°
2026-05-09 02:53 18.33751 -64.96829 13 ft 18 kts 87°
2026-05-09 02:53 18.33755 -64.96736 12 ft 8 kts 88°
2026-05-09 02:53 18.33737 -64.96690 14 ft 7 kts 149°
2026-05-09 02:53 18.33698 -64.96686 13 ft 4 kts 189°
2026-05-09 02:54 18.33679 -64.96708 13 ft 6 kts 245°
2026-05-09 02:54 18.33673 -64.96744 14 ft 4 kts 265°
2026-05-09 02:54 18.33671 -64.96774 14 ft 6 kts 268°
2026-05-09 02:54 18.33669 -64.96838 14 ft 8 kts 267°
2026-05-09 02:55 18.33667 -64.96893 15 ft 7 kts 268°
2026-05-09 02:55 18.33666 -64.96934 15 ft 5 kts 268°
2026-05-09 02:55 18.33664 -64.96966 16 ft 7 kts 265°
2026-05-09 02:55 18.33659 -64.97043 17 ft 10 kts 268°
2026-05-09 02:56 18.33656 -64.97112 17 ft 8 kts 268°
2026-05-09 02:56 18.33655 -64.97175 18 ft 9 kts 268°
2026-05-09 02:56 18.33652 -64.97233 18 ft 7 kts 266°
2026-05-09 02:56 18.33628 -64.97262 19 ft 5 kts 192°
2026-05-09 02:57 18.33594 -64.97261 20 ft 5 kts 176°
2026-05-09 02:57 18.33565 -64.97260 18 ft 2 kts 179°